sat.trackr.live / text

‹ back to catalog

STARLINK-11738 [DTC]

NORAD 64375 · 2025-127F

PAYLOAD ACTIVE UNKNOWN

§ Identity

Operator
Country
US
Launch date
2025-06-13
Launch site
AFETR
Launch vehicle
Mass (kg)
RCS (m²)

Purposes: comms

External: N2YO · Heavens-Above · Gunter

§ Orbital elements

Epoch: 2026-05-24T23:09:29.645280Z

Period
91.67 min
Inclination
43.0028°
Eccentricity
0.0002490
Mean motion
15.70907705 rev/d
Perigee alt
354.6 km
Apogee alt
358.0 km
Semi-major
6,734.4 km
B*
1.7185e-3
RAAN
345.2091°
Arg perigee
279.0633°
Mean anomaly
80.9953°
Rev number
5,549

§ Raw data

STARLINK-11738 [DTC]1 64375U 25127F   26144.96492645  .00226839  00000+0  17185-2 0  99972 64375  43.0028 345.2091 0002490 279.0633  80.9953 15.70907705 55491

JSON: /api/v1/satellites/64375 · /tle

For live sub-satellite position, see the globe view (requires WebGL).

§ Visibility from observer

Set your observer location to see the next 7 days of passes ≥ 10°. The values pass through the URL so the page stays shareable.

No JS? Fill the form by hand. The geolocation button needs JavaScript.